This is the latest recevied weather packets stored in our database for station/object OM3WYM-13. If no packets are shown the sender has not sent any weather packets the latest 10 day(s).
| Time | Temp. | Humidity | Pressure | Rain* | Wind** | Luminosity | Snow |
|---|---|---|---|---|---|---|---|
| 1777909208 | 28.33° C | 17% | 1013.3 hPa | - | - | - | - |
| 1777905608 | 28.33° C | 18% | 1013.8 hPa | - | - | - | - |
| 1777903209 | 28.89° C | 18% | 1014.1 hPa | - | - | - | - |
| 1777900808 | 28.89° C | 19% | 1014.4 hPa | - | - | - | - |
| 1777897808 | 27.22° C | 20% | 1015.1 hPa | - | - | - | - |
| 1777897208 | 25.56° C | 21% | 1015.4 hPa | - | - | - | - |
| 1777896608 | 25° C | 22% | 1015.5 hPa | - | - | - | - |
| 1777894208 | 23.89° C | 24% | 1016 hPa | - | - | - | - |
| 1777893608 | 23.33° C | 25% | 1016.2 hPa | - | - | - | - |
| 1777893008 | 22.78° C | 25% | 1016.4 hPa | - | - | - | - |
| 1777890608 | 21.67° C | 25% | 1017.1 hPa | - | - | - | - |
| 1777890008 | 21.11° C | 26% | 1017.3 hPa | - | - | - | - |
| 1777889408 | 20.56° C | 27% | 1017.5 hPa | - | - | - | - |
| 1777888809 | 21.11° C | 27% | 1017.7 hPa | - | - | - | - |
| 1777887608 | 20.56° C | 29% | 1017.8 hPa | - | - | - | - |
| 1777887008 | 20° C | 30% | 1017.9 hPa | - | - | - | - |
| 1777886408 | 20° C | 30% | 1017.9 hPa | - | - | - | - |
| 1777885808 | 20° C | 32% | 1018.2 hPa | - | - | - | - |
| 1777885208 | 19.44° C | 32% | 1018.3 hPa | - | - | - | - |
| 1777884608 | 18.89° C | 34% | 1018.4 hPa | - | - | - | - |
| 1777884009 | 18.89° C | 35% | 1018.5 hPa | - | - | - | - |
| 1777883408 | 18.89° C | 36% | 1018.5 hPa | - | - | - | - |
| 1777882208 | 18.33° C | 36% | 1018.7 hPa | - | - | - | - |
| 1777881608 | 17.78° C | 39% | 1018.8 hPa | - | - | - | - |
| 1777880408 | 16.67° C | 43% | 1018.7 hPa | - | - | - | - |
* Rain since midnight (hover to see other rain measurements)
** Current wind speed in m/s (hover to see current wind gust speed)